Location: Brachbach
(49.1847°N, 9.7240°E)
Time: 02:41:20
(UTC+00:00)

Cosmos 1709 Rocket - Pass Details

Date: 23 May 2024
Orbit: 948 x 1000 km, 82.9° (Epoch: 13 June)

Event Time Altitude Azimuth Distance (km) Brightness Sun altitude
Exits shadow 01:49:42 16° 205° (SSW) 2,342 5.4 -12.4°
Maximum altitude 01:54:49 62° 283° (WNW) 1,111 4.2 -11.9°
Drops below altitude 10° 02:01:10 10° 4° (N) 2,781 7.3 -11.3°
Sets 02:03:46 0° 8° (N) 3,737 8.2 -11.0°
